When you browse on this site, cookies collect data to enhance your experience and personalize the content and advertising you see.
Visit our Privacy Policy to learn more. By continuing to use the site, you agree to this use of cookies and data.
  • In Hungary
  • List of Countries
  • For 7 days
  • Water Temperature
  • Satellite Maps
  • Weather Map
  • News
  • Weather Widgets
  • user-avatar
    Login

    Hourly Weather Postupel'

    Today, 18 July, Thursday

    Time Temperature Precipitation Wind Pressure Humidity
    00:00 +11°C° 0 mm 3 mps 743 mmHg 95%
    01:00 +11°C° 0 mm 4 mps 743 mmHg 95%
    02:00 +11°C° 0 mm 4 mps 743 mmHg 96%
    03:00 +11°C° 0 mm 4 mps 743 mmHg 96%
    04:00 +11°C° 0 mm 4 mps 743 mmHg 97%
    05:00 +11°C° 0 mm 4 mps 744 mmHg 97%
    06:00 +12°C° 0 mm 4 mps 744 mmHg 96%
    07:00 +12°C° 0 mm 4 mps 744 mmHg 95%
    08:00 +13°C° 0 mm 4 mps 744 mmHg 94%
    09:00 +13°C° 0 mm 4 mps 744 mmHg 91%
    10:00 +14°C° 0 mm 4 mps 744 mmHg 88%
    11:00 +15°C° 0 mm 4 mps 745 mmHg 86%
    12:00 +18°C° 0 mm 4 mps 745 mmHg 79%
    13:00 +19°C° 0 mm 4 mps 745 mmHg 72%
    14:00 +21°C° 0 mm 4 mps 745 mmHg 66%
    15:00 +21°C° 0.1 mm 4 mps 745 mmHg 65%
    16:00 +22°C° 0.1 mm 4 mps 745 mmHg 63%
    17:00 +22°C° 0.1 mm 4 mps 745 mmHg 62%
    18:00 +21°C° 0.1 mm 4 mps 745 mmHg 69%
    19:00 +19°C° 0.1 mm 3 mps 745 mmHg 75%
    20:00 +18°C° 0.1 mm 3 mps 745 mmHg 82%
    21:00 +17°C° 0 mm 3 mps 745 mmHg 84%
    22:00 +16°C° 0 mm 3 mps 746 mmHg 87%
    23:00 +14°C° 0 mm 3 mps 746 mmHg 89%

    Tomorrow, 19 July, Friday

    Time Temperature Precipitation Wind Pressure Humidity
    00:00 +15°C° 0 mm 2 mps 746 mmHg 91%
    01:00 +14°C° 0 mm 2 mps 746 mmHg 92%
    02:00 +14°C° 0 mm 2 mps 746 mmHg 93%
    03:00 +14°C° 0 mm 2 mps 747 mmHg 93%
    04:00 +13°C° 0 mm 2 mps 747 mmHg 94%
    05:00 +13°C° 0 mm 2 mps 747 mmHg 94%
    06:00 +15°C° 0 mm 2 mps 747 mmHg 88%
    07:00 +17°C° 0 mm 2 mps 747 mmHg 82%
    08:00 +19°C° 0 mm 2 mps 747 mmHg 77%
    09:00 +20°C° 0.1 mm 3 mps 748 mmHg 70%
    10:00 +21°C° 0.1 mm 3 mps 748 mmHg 64%
    11:00 +24°C° 0.1 mm 3 mps 748 mmHg 58%
    12:00 +24°C° 0 mm 3 mps 748 mmHg 56%
    13:00 +25°C° 0 mm 3 mps 748 mmHg 53%
    14:00 +25°C° 0 mm 3 mps 748 mmHg 51%
    15:00 +25°C° 0 mm 3 mps 747 mmHg 52%
    16:00 +25°C° 0 mm 3 mps 747 mmHg 53%
    17:00 +25°C° 0 mm 3 mps 747 mmHg 55%
    18:00 +22°C° 0 mm 3 mps 747 mmHg 60%
    19:00 +21°C° 0 mm 2 mps 747 mmHg 66%
    20:00 +19°C° 0 mm 2 mps 748 mmHg 72%
    21:00 +19°C° 0 mm 1 mps 748 mmHg 74%
    22:00 +18°C° 0 mm 1 mps 748 mmHg 77%
    23:00 +16°C° 0 mm 1 mps 748 mmHg 79%

    Day after tomorrow, 20 July, Saturday

    Time Temperature Precipitation Wind Pressure Humidity
    00:00 +16°C° 0 mm 1 mps 748 mmHg 80%
    01:00 +16°C° 0 mm 1 mps 748 mmHg 82%
    02:00 +15°C° 0 mm 1 mps 748 mmHg 83%
    03:00 +15°C° 0 mm 1 mps 748 mmHg 83%
    04:00 +15°C° 0 mm 1 mps 749 mmHg 83%
    05:00 +15°C° 0 mm 1 mps 749 mmHg 83%
    06:00 +16°C° 0 mm 1 mps 749 mmHg 78%
    07:00 +19°C° 0 mm 1 mps 749 mmHg 73%
    08:00 +21°C° 0 mm 1 mps 749 mmHg 69%
    09:00 +23°C° 0 mm 1 mps 750 mmHg 64%
    10:00 +24°C° 0 mm 1 mps 750 mmHg 59%
    11:00 +26°C° 0 mm 1 mps 750 mmHg 54%
    12:00 +26°C° 0 mm 1 mps 750 mmHg 51%
    13:00 +27°C° 0 mm 1 mps 750 mmHg 49%
    14:00 +27°C° 0 mm 1 mps 750 mmHg 46%
    15:00 +27°C° 0 mm 1 mps 750 mmHg 47%
    16:00 +27°C° 0 mm 1 mps 750 mmHg 47%
    17:00 +25°C° 0 mm 0 mps 750 mmHg 48%
    18:00 +23°C° 0 mm 0 mps 750 mmHg 54%
    19:00 +24°C° 0 mm 1 mps 750 mmHg 61%
    20:00 +22°C° 0 mm 1 mps 750 mmHg 67%
    21:00 +21°C° 0 mm 1 mps 750 mmHg 72%
    22:00 +20°C° 0 mm 1 mps 750 mmHg 76%
    23:00 +18°C° 0 mm 2 mps 750 mmHg 81%

    21 July, Sunday

    Time Temperature Precipitation Wind Pressure Humidity
    00:00 +19°C° 0 mm 1 mps 750 mmHg 83%
    01:00 +18°C° 0 mm 1 mps 750 mmHg 85%
    02:00 +18°C° 0 mm 1 mps 750 mmHg 87%
    03:00 +18°C° 0 mm 1 mps 750 mmHg 88%
    04:00 +16°C° 0 mm 1 mps 750 mmHg 88%
    05:00 +16°C° 0 mm 1 mps 750 mmHg 89%
    06:00 +19°C° 0 mm 1 mps 750 mmHg 83%
    07:00 +20°C° 0 mm 2 mps 750 mmHg 78%
    08:00 +21°C° 0 mm 2 mps 750 mmHg 72%
    09:00 +24°C° 0 mm 2 mps 750 mmHg 67%
    10:00 +25°C° 0 mm 3 mps 750 mmHg 63%
    11:00 +26°C° 0 mm 3 mps 750 mmHg 58%
    12:00 +27°C° 0 mm 3 mps 750 mmHg 56%
    13:00 +28°C° 0 mm 3 mps 750 mmHg 54%
    14:00 +29°C° 0 mm 3 mps 749 mmHg 52%
    15:00 +28°C° 0 mm 2 mps 749 mmHg 55%
    16:00 +28°C° 0 mm 2 mps 749 mmHg 57%
    17:00 +28°C° 0 mm 2 mps 749 mmHg 60%
    18:00 +26°C° 0.8 mm 2 mps 748 mmHg 69%
    19:00 +24°C° 0.8 mm 2 mps 748 mmHg 77%
    20:00 +21°C° 0.8 mm 3 mps 748 mmHg 85%
    21:00 +21°C° 0.5 mm 3 mps 748 mmHg 88%
    22:00 +20°C° 0.5 mm 3 mps 748 mmHg 91%
    23:00 +19°C° 0.5 mm 3 mps 748 mmHg 95%

    22 July, Monday

    Time Temperature Precipitation Wind Pressure Humidity
    00:00 +18°C° 0.5 mm 3 mps 748 mmHg 95%
    01:00 +18°C° 0.5 mm 3 mps 748 mmHg 96%
    02:00 +18°C° 0.5 mm 3 mps 748 mmHg 97%
    03:00 +18°C° 0 mm 3 mps 748 mmHg 97%
    04:00 +17°C° 0 mm 3 mps 748 mmHg 97%
    05:00 +17°C° 0 mm 4 mps 748 mmHg 97%
    06:00 +18°C° 0 mm 4 mps 748 mmHg 93%
    07:00 +19°C° 0 mm 4 mps 749 mmHg 88%
    08:00 +20°C° 0 mm 4 mps 749 mmHg 84%
    09:00 +21°C° 0 mm 4 mps 749 mmHg 78%
    10:00 +23°C° 0 mm 4 mps 749 mmHg 71%
    11:00 +25°C° 0 mm 4 mps 749 mmHg 65%
    12:00 +26°C° 0 mm 4 mps 749 mmHg 63%
    13:00 +26°C° 0 mm 5 mps 749 mmHg 60%
    14:00 +27°C° 0 mm 5 mps 749 mmHg 58%
    15:00 +26°C° 0 mm 4 mps 749 mmHg 59%
    16:00 +26°C° 0 mm 4 mps 749 mmHg 60%
    17:00 +26°C° 0 mm 4 mps 749 mmHg 61%
    18:00 +25°C° 0 mm 3 mps 749 mmHg 67%
    19:00 +22°C° 0 mm 3 mps 749 mmHg 73%
    20:00 +21°C° 0 mm 2 mps 749 mmHg 79%
    21:00 +20°C° 0 mm 2 mps 749 mmHg 83%
    22:00 +19°C° 0 mm 2 mps 749 mmHg 87%
    23:00 +17°C° 0 mm 2 mps 749 mmHg 92%

    23 July, Tuesday

    Time Temperature Precipitation Wind Pressure Humidity
    00:00 +17°C° 0 mm 2 mps 749 mmHg 93%
    01:00 +17°C° 0 mm 2 mps 749 mmHg 94%
    02:00 +16°C° 0 mm 2 mps 749 mmHg 94%
    03:00 +16°C° 0 mm 2 mps 749 mmHg 95%
    04:00 +16°C° 0 mm 2 mps 749 mmHg 96%
    05:00 +16°C° 0 mm 2 mps 749 mmHg 96%
    06:00 +17°C° 0 mm 2 mps 749 mmHg 92%
    07:00 +18°C° 0 mm 3 mps 749 mmHg 88%
    08:00 +20°C° 0 mm 3 mps 749 mmHg 84%
    09:00 +21°C° 0.2 mm 3 mps 749 mmHg 80%
    10:00 +22°C° 0.2 mm 3 mps 750 mmHg 75%
    11:00 +25°C° 0.2 mm 3 mps 750 mmHg 70%
    12:00 +25°C° 0.4 mm 3 mps 750 mmHg 67%
    13:00 +26°C° 0.4 mm 3 mps 750 mmHg 64%
    14:00 +27°C° 0.4 mm 3 mps 750 mmHg 61%
    15:00 +26°C° 0.5 mm 3 mps 749 mmHg 62%
    16:00 +26°C° 0.5 mm 3 mps 749 mmHg 64%
    17:00 +26°C° 0.5 mm 4 mps 749 mmHg 66%
    18:00 +24°C° 0 mm 3 mps 749 mmHg 71%
    19:00 +22°C° 0 mm 3 mps 749 mmHg 76%
    20:00 +21°C° 0 mm 2 mps 749 mmHg 81%
    21:00 +20°C° 0 mm 2 mps 749 mmHg 82%
    22:00 +20°C° 0 mm 2 mps 750 mmHg 83%
    23:00 +19°C° 0 mm 3 mps 750 mmHg 84%
    Show more